Overview Statistics Trail Chart Weather Telemetry Raw packets
 

This is the latest recevied weather packets stored in our database for station/object WX4SGA. If no packets are shown the sender has not sent any weather packets the latest 10 day(s).

<< 59 60 61 62 63 64 65 >>
Time Temp. Humidity Pressure Rain* Wind** Luminosity Snow
1788210779 29.44° C 76% 1017.6 hPa 0 mm - 98 W/m² -
1788210478 30° C 76% 1017.6 hPa 0 mm - 141 W/m² -
1788210174 30.56° C 73% 1017.3 hPa 0 mm - 206 W/m² -
1788209874 30.56° C 76% 1017.6 hPa 0 mm - 241 W/m² -
1788209570 30.56° C 74% 1017.6 hPa 0 mm - 225 W/m² -
1788209269 32.22° C 70% 1017.6 hPa 0 mm - 187 W/m² -
1788208969 31.11° C 72% 1017.6 hPa 0 mm - 622 W/m² -
1788208668 31.11° C 71% 1017.6 hPa 0 mm - 111 W/m² -
1788208363 31.67° C 70% 1017.6 hPa 0 mm - 101 W/m² -
1788208061 31.67° C 66% 1017.6 hPa 0 mm - 670 W/m² -
1788207757 31.67° C 68% 1017.6 hPa 0 mm - 138 W/m² -
1788207456 32.22° C 69% 1017.6 hPa 0 mm - 153 W/m² -
1788207156 31.67° C 68% 1017.6 hPa 0 mm - 355 W/m² -
1788206851 32.22° C 65% 1017.6 hPa 0 mm - 577 W/m² -
1788206546 31.67° C 69% 1017.6 hPa 0 mm - 700 W/m² -
1788206242 32.22° C 66% 1017.6 hPa 0 mm - 664 W/m² -
1788205937 32.78° C 67% 1017.6 hPa 0 mm - 707 W/m² -
1788205632 32.22° C 63% 1017.6 hPa 0 mm - 709 W/m² -
1788205328 31.67° C 67% 1018 hPa 0 mm - 698 W/m² -
1788205021 31.11° C 68% 1018 hPa 0 mm - 142 W/m² -
1788204717 32.22° C 68% 1018 hPa 0 mm - 146 W/m² -
1788204412 32.22° C 65% 1018 hPa 0 mm - 846 W/m² -
1788204107 32.22° C 63% 1018 hPa 0 mm - 786 W/m² -
1788203803 32.22° C 63% 1018 hPa 0 mm - 798 W/m² -
1788203499 31.67° C 68% 1018 hPa 0 mm - 710 W/m² -

* Rain latest hour (hover to see other rain measurements)
** Current wind speed in m/s (hover to see current wind gust speed)